[[{"header":{"parameterUnit":"m.s-1","parameterCategory":2,"la1":30.2991,"la2":30.254,"lo1":-89.0895,"lo2":-89.0444,"dy":0.0017,"dx":0.0017,"nx":28,"ny":28,"refTime":"2024-06-07T03:00:00:Z","depth":"0","parameterNumber":2,"parameterNumberName":"U-component_of_CURRENTS"},"data":[0,0,0,0,0,0,0,0,0,0,0,0,0,0,0,0,0,0,0,0,0,0,0,0,0,0,0,0,0,0,0,0,0,0,0,0,0,0,0,0,0,0,0,0,0,0,0,0,0,0,0,0,0,0,0,0,0,0,0.3629,0.363,0,0.3797,0.3799,0.38,0.3807,0.3805,0.3803,0.3801,0.396,0.3965,0.3971,0,0,0,0,0,0,0,0,0,0,0,0,0,0.3481,0.3483,0.3628,0.3631,0.3633,0.3797,0.3799,0.3801,0.3807,0.3805,0.3802,0.38,0.3958,0.3965,0.3972,0,0,0,0,0,0,0,0,0,0,0,0,0,0.3585,0.3483,0.3628,0.3656,0.3661,0.3796,0.3799,0.3802,0.3808,0.3805,0.3802,0.3799,0.3955,0.3964,0.3973,0.4086,0,0,0.4,0.4004,0,0,0,0,0,0,0,0,0.3579,0.359,0.365,0.3655,0.366,0.3779,0.3805,0.3897,0.3808,0.3751,0.3801,0.3798,0.3901,0.3915,0.3951,0.4094,0.41,0.4001,0.4007,0.4011,0.4013,0,0,0,0,0,0,0,0.3572,0.3584,0.3694,0.3653,0.3659,0.3719,0.3729,0.3823,0.3839,0.3755,0.3757,0.3778,0.3903,0.3942,0.3955,0.4103,0.4001,0.4009,0.4015,0.4018,0.4472,0.4478,0,0,0,0,0,0,0.3548,0.3577,0.3689,0.3699,0.3613,0.3723,0.3734,0.3743,0.3838,0.385,0.378,0.3778,0.3928,0.3944,0.396,0.4171,0.4011,0.4019,0.4024,0.4466,0.4474,0.4481,0,0,0,0,0,0,0.3544,0.3556,0.3682,0.3643,0.3664,0.3728,0.3738,0.3747,0.3788,0.3857,0.3868,0.3811,0.3927,0.3948,0.4086,0.4174,0.4023,0.4031,0.4458,0.4468,0.4477,0.4547,0,0,0,0,0,0,0.3539,0.3553,0.3559,0.3641,0.3665,0.3787,0.3741,0.3753,0.3806,0.3805,0.3888,0.3899,0.3926,0.4073,0.4095,0.4183,0.4038,0.4449,0.4462,0.4474,0.4536,0.4558,0.4577,0,0,0,0,0,0.3533,0.3566,0.3558,0.3573,0.3668,0.3791,0.381,0.3845,0.3811,0.3863,0.3924,0.3897,0.4168,0.4086,0.411,0.4203,0.4443,0.4459,0.4473,0.4527,0.4554,0.4576,0,0,0,0,0,0,0.351,0.3572,0.3565,0.3613,0.37,0.3792,0.3848,0.3858,0.3947,0.3945,0.3976,0.3997,0.4148,0.419,0.4097,0.4382,0.4306,0.4326,0.4339,0.4364,0.4384,0.4355,0.4046,0,0,0,0,0,0.3506,0.3542,0.3619,0.3664,0.3707,0.3774,0.3825,0.3857,0.3942,0.3975,0.403,0.4121,0.4238,0.4303,0.4401,0.4559,0.4565,0.4645,0.4665,0.4681,0.4684,0.4787,0.4814,0.453,0.453,0.453,0,0,0.3506,0.355,0.3567,0.3662,0.3727,0.3832,0.3799,0.3902,0.3992,0.3985,0.4123,0.4186,0.4295,0.4465,0.454,0.4505,0.477,0.47,0.4712,0.4706,0.4805,0.4831,0.4855,0.454,0.4538,0.4537,0,0,0.3563,0.3573,0.3634,0.3715,0.3825,0.3887,0.3916,0.4022,0.4071,0.4224,0.4242,0.4361,0.4531,0.4627,0.4698,0.4903,0.4863,0.4942,0.5029,0.513,0.5152,0.5171,0.52,0.5221,0.4963,0.4963,0.4964,0,0.3558,0.3645,0.368,0.378,0.3859,0.3911,0.4024,0.4108,0.4244,0.4314,0.4285,0.4553,0.4618,0.4835,0.4897,0.4944,0.496,0.4908,0.5147,0.5167,0.5185,0.521,0.5232,0.4969,0.4968,0.4967,0.4967,0,0.3677,0.3751,0.3811,0.3939,0.403,0.4147,0.4257,0.4352,0.4405,0.4486,0.4682,0.4778,0.4932,0.4986,0.4999,0.5191,0.5145,0.5138,0.5056,0.5216,0.5234,0.5256,0.4976,0.4974,0.4973,0.4971,0,0,0.3661,0.385,0.3873,0.3959,0.4125,0.4221,0.4381,0.4557,0.4652,0.4787,0.492,0.5125,0.5138,0.522,0.5258,0.5338,0.5464,0.5287,0.5289,0.5262,0.5634,0.5548,0.5562,0.5482,0.5487,0.5491,0.5586,0,0.3751,0.3946,0.4022,0.4223,0.434,0.4436,0.4572,0.4726,0.4838,0.4975,0.5101,0.524,0.5245,0.5295,0.5397,0.5445,0.5528,0.5435,0.553,0.5532,0.5393,0.5588,0.5321,0.538,0.5606,0.561,0.5612,0,0.3848,0.3973,0.4168,0.4366,0.4421,0.4535,0.4744,0.4876,0.5071,0.5143,0.5305,0.5369,0.5548,0.5482,0.5689,0.5623,0.5642,0.5657,0.5662,0.5569,0.5489,0.5269,0.541,0.5279,0.5645,0.5642,0.564,0,0.3844,0.4074,0.4229,0.4304,0.453,0.4623,0.4739,0.4932,0.5036,0.5234,0.5305,0.5524,0.561,0.5715,0.5783,0.5739,0.594,0.5892,0.584,0.583,0.5618,0.5582,0.5596,0.6027,0.6027,0.6027,0.6026,0,0.3918,0.4046,0.4234,0.4327,0.449,0.4635,0.4795,0.4929,0.5093,0.5228,0.5378,0.5498,0.5666,0.58,0.5838,0.5924,0.6017,0.5887,0.5881,0.5637,0.5604,0.5489,0.5431,0.603,0.6029,0.6029,0.6028,0,0.3907,0.4034,0.4209,0.443,0.4494,0.4604,0.4788,0.4899,0.5052,0.5217,0.5275,0.5508,0.57,0.5842,0.6002,0.5987,0.5894,0.6057,0.5726,0.5681,0.5479,0.5435,0.5268,0.5123,0.6016,0.6015,0.6015,0,0.393,0.4022,0.4236,0.4312,0.4412,0.457,0.467,0.4853,0.4964,0.5225,0.5304,0.5532,0.5684,0.5895,0.5924,0.6004,0.5861,0.5768,0.5658,0.5469,0.5418,0.5217,0.5092,0.5392,0.5386,0.5381,0.5377,0,0.3971,0.4027,0.4163,0.4295,0.441,0.4519,0.4678,0.474,0.4963,0.5084,0.5268,0.5395,0.5625,0.5607,0.5716,0.5728,0.5475,0.567,0.558,0.5035,0.4712,0.4566,0.529,0.5334,0.5339,0.5342,0.5344,0.5346,0.398,0.4043,0.418,0.4291,0.4391,0.4447,0.4471,0.4626,0.4736,0.4874,0.5113,0.5192,0.5297,0.5421,0.5391,0.5178,0.521,0.5011,0.5001,0.4838,0.4608,0.5219,0.52,0.5203,0.5206,0.5209,0.5211,0,0.3992,0.4058,0.4167,0.4268,0.4284,0.4359,0.4459,0.4431,0.4476,0.4659,0.4777,0.4808,0.4791,0.4835,0.4727,0.453,0.4306,0.4416,0.407,0.4009,0.4647,0.453,0.4236,0.4236,0.4236,0.4236,0.4236,0.4237,0.4012,0.4086,0.4123,0.4132,0.4158,0.411,0.4101,0.4078,0.4148,0.412,0.411,0.4225,0.4379,0.4389,0.4183,0.4077,0.3772,0.3565,0.3635,0.409,0.4143,0.4194,0.4073,0.3687,0.3686,0.2778,0.2771,0.2766]},{"header":{"parameterUnit":"m.s-1","parameterCategory":2,"la1":30.2991,"la2":30.254,"lo1":-89.0895,"lo2":-89.0444,"dy":0.0017,"dx":0.0017,"nx":28,"ny":28,"refTime":"2024-06-07T03:00:00:Z","depth":"0","parameterNumber":3,"parameterNumberName":"V-component_of_CURRENTS"},"data":[0,0,0,0,0,0,0,0,0,0,0,0,0,0,0,0,0,0,0,0,0,0,0,0,0,0,0,0,0,0,0,0,0,0,0,0,0,0,0,0,0,0,0,0,0,0,0,0,0,0,0,0,0,0,0,0,0,0,0.0027,0.0027,0,-0.0006,-0.0007,-0.0007,-0.0042,-0.0043,-0.0043,-0.0044,-0.0171,-0.0174,-0.0177,0,0,0,0,0,0,0,0,0,0,0,0,0,0.0066,0.0065,0.0027,0.0027,0.0027,-0.0006,-0.0007,-0.0007,-0.0042,-0.0043,-0.0043,-0.0044,-0.017,-0.0173,-0.0177,0,0,0,0,0,0,0,0,0,0,0,0,0,0.0042,0.0065,0.0027,0.0005,0.0003,-0.0006,-0.0007,-0.0007,-0.0042,-0.0043,-0.0044,-0.0044,-0.0169,-0.0173,-0.0177,-0.019,0,0,-0.0191,-0.0193,0,0,0,0,0,0,0,0,0.0044,0.0041,0.0009,0.0007,0.0004,-0.0021,-0.004,-0.0073,-0.0042,-0.0025,-0.0044,-0.0045,-0.0129,-0.0136,-0.014,-0.0196,-0.0202,-0.0191,-0.0194,-0.0196,-0.0197,0,0,0,0,0,0,0,0.0045,0.0042,0.0014,0.0009,0.0006,-0.0001,-0.0006,-0.0046,-0.0074,-0.0027,-0.0029,-0.0033,-0.0131,-0.0136,-0.0144,-0.0204,-0.0191,-0.0195,-0.0198,-0.0199,-0.0307,-0.0307,0,0,0,0,0,0,0.005,0.0044,0.0015,0.0013,0.0023,-0.0002,-0.0006,-0.0012,-0.0072,-0.0081,-0.0032,-0.0034,-0.0128,-0.0138,-0.0148,-0.017,-0.0196,-0.02,-0.0202,-0.0306,-0.0307,-0.0307,0,0,0,0,0,0,0.0051,0.0048,0.0016,0.0028,0.0023,-0.0001,-0.0008,-0.0012,-0.0015,-0.0075,-0.0086,-0.003,-0.0129,-0.0142,-0.018,-0.0175,-0.0202,-0.0206,-0.0306,-0.0306,-0.0307,-0.0212,0,0,0,0,0,0,0.0053,0.0049,0.0049,0.0028,0.0023,0.0023,-0.0007,-0.0013,-0.0016,-0.0019,-0.0077,-0.0089,-0.013,-0.0172,-0.0184,-0.0182,-0.0209,-0.0306,-0.0306,-0.0307,-0.0215,-0.0209,-0.0204,0,0,0,0,0,0.0054,0.0064,0.005,0.0046,0.0023,0.0024,0.0021,0.0001,-0.0015,-0.0006,-0.0051,-0.0087,-0.0184,-0.0176,-0.0189,-0.0188,-0.0306,-0.0306,-0.0307,-0.0217,-0.021,-0.0204,0,0,0,0,0,0,0.0086,0.0061,0.0044,0.0047,0.0039,0.0018,0.0026,0.0008,-0.0017,-0.0027,-0.0084,-0.0099,-0.0133,-0.0175,-0.0165,-0.0223,-0.0253,-0.0256,-0.0181,-0.0175,-0.0169,-0.0087,-0.0213,0,0,0,0,0,0.0092,0.0092,0.0069,0.0074,0.0072,0.0049,0.0047,0.0031,0.0005,-0.0006,-0.0046,-0.0098,-0.0145,-0.0169,-0.0214,-0.024,-0.0242,-0.0253,-0.0247,-0.0242,-0.0186,-0.0187,-0.0174,-0.0308,-0.0308,-0.0308,0,0,0.0106,0.0094,0.0093,0.0081,0.0073,0.0085,0.0047,0.0049,0.0056,-0.0019,-0.0022,-0.0078,-0.0148,-0.0177,-0.0197,-0.0212,-0.0213,-0.0243,-0.0237,-0.0183,-0.0185,-0.0172,-0.016,-0.0309,-0.0308,-0.0308,0,0,0.0147,0.0125,0.0142,0.0138,0.0127,0.0115,0.0119,0.0099,0.0088,0.007,0.0015,-0.0016,-0.0095,-0.0123,-0.0156,-0.0145,-0.0183,-0.019,-0.0093,-0.0096,-0.0083,-0.0072,-0.0077,-0.0067,-0.0187,-0.0187,-0.0187,0,0.0166,0.0181,0.015,0.0168,0.0178,0.0134,0.0165,0.0146,0.0116,0.0127,0.0078,0.0016,-0.0056,-0.0062,-0.0069,-0.0126,-0.0137,-0.0111,-0.0083,-0.0072,-0.0062,-0.007,-0.006,-0.0182,-0.0183,-0.0183,-0.0184,0,0.0218,0.0231,0.0246,0.0252,0.0258,0.0276,0.025,0.0251,0.0224,0.0214,0.0206,0.0124,0.0104,0.0047,-0.0013,0.0014,-0.0021,-0.0074,-0.0086,-0.0041,-0.0055,-0.0046,-0.0176,-0.0178,-0.0179,-0.018,0,0,0.0265,0.028,0.0287,0.0322,0.0306,0.0332,0.0336,0.0356,0.0402,0.0343,0.0404,0.0303,0.0285,0.025,0.0169,0.0155,0.018,0.0077,0.0075,0.0099,0.0177,0.0145,0.0151,0.0127,0.0129,0.0131,0.0133,0,0.0323,0.039,0.0371,0.0446,0.0487,0.0454,0.0485,0.0492,0.0483,0.0525,0.0454,0.0469,0.035,0.0349,0.0317,0.0225,0.0211,0.0186,0.0111,0.011,0.0098,0.0164,0.0161,0.0163,0.0141,0.0143,0.0144,0,0.0385,0.0429,0.0513,0.0581,0.0598,0.0636,0.0709,0.0726,0.0747,0.0743,0.0744,0.0693,0.0675,0.0559,0.0471,0.0457,0.0345,0.026,0.0256,0.0218,0.0097,0.0116,0.0179,-0.0053,0.0157,0.0156,0.0155,0,0.0474,0.0534,0.0618,0.0636,0.0694,0.0743,0.0777,0.0812,0.0866,0.0905,0.0963,0.091,0.0921,0.0783,0.0602,0.054,0.0507,0.039,0.0261,0.0256,0.0243,0.0233,0.0107,0.035,0.035,0.035,0.035,0,0.0551,0.0622,0.0679,0.0733,0.0865,0.0861,0.0996,0.1018,0.1081,0.1201,0.1105,0.1197,0.0981,0.0919,0.0707,0.0544,0.059,0.0329,0.0275,0.0268,0.0262,0.0048,-0.0085,0.035,0.035,0.035,0.035,0,0.0641,0.0663,0.078,0.0871,0.0914,0.1017,0.1136,0.1233,0.1274,0.1429,0.1457,0.144,0.1377,0.1146,0.0948,0.0713,0.0402,0.0448,0.0456,0.0404,0.0032,-0.0095,-0.0219,-0.0314,0.0307,0.0306,0.0306,0,0.0694,0.0762,0.09,0.0992,0.1045,0.118,0.128,0.1333,0.1443,0.1599,0.1699,0.1692,0.1739,0.1436,0.1033,0.0694,0.0445,0.0424,0.0299,0.0062,-0.012,-0.0215,-0.0293,0.0301,0.03,0.03,0.03,0,0.0811,0.0858,0.0958,0.1136,0.1265,0.1404,0.1553,0.1663,0.1762,0.192,0.212,0.2179,0.1912,0.1589,0.1097,0.0829,0.0263,0.0405,0.0166,-0.01,-0.0212,-0.0346,0.0236,0.0297,0.0297,0.0298,0.0298,0.0298,0.0909,0.0995,0.1123,0.1294,0.1438,0.161,0.1746,0.1923,0.2136,0.2397,0.2429,0.2578,0.2052,0.1403,0.1015,0.0257,0.0251,-0.0015,-0.0138,-0.0203,-0.0319,0.0263,0.0251,0.0251,0.0251,0.0251,0.0251,0,0.1017,0.1107,0.1272,0.146,0.1619,0.1675,0.1914,0.2073,0.2358,0.2628,0.2828,0.2644,0.2013,0.1329,0.0306,-0.0213,-0.0394,-0.0493,-0.0642,-0.0689,-0.0161,-0.019,-0.0304,-0.0304,-0.0304,-0.0304,-0.0304,-0.0303,0.1082,0.1231,0.1301,0.1567,0.1703,0.1919,0.2058,0.2333,0.2565,0.29,0.3001,0.3025,0.2446,0.0703,-0.0479,-0.0741,-0.1068,-0.1148,-0.1308,-0.099,-0.0956,-0.0923,-0.0982,-0.126,-0.1261,-0.1778,-0.1784,-0.1788]}],[{"header":{"parameterUnit":"m.s-1","parameterCategory":2,"la1":30.2991,"la2":30.254,"lo1":-89.0895,"lo2":-89.0444,"dy":0.0017,"dx":0.0017,"nx":28,"ny":28,"refTime":"2024-06-07T03:00:00:Z","depth":"2","parameterNumber":2,"parameterNumberName":"U-component_of_CURRENTS"},"data":[0,0,0,0,0,0,0,0,0,0,0,0,0,0,0,0,0,0,0,0,0,0,0,0,0,0,0,0,0,0,0,0,0,0,0,0,0,0,0,0,0,0,0,0,0,0,0,0,0,0,0,0,0,0,0,0,0,0,0.3084,0.3085,0,0.3179,0.318,0.3181,0.3197,0.3196,0.3195,0.3194,0.3196,0.3197,0.3198,0,0,0,0,0,0,0,0,0,0,0,0,0,0.3008,0.3009,0.3084,0.3085,0.3086,0.3178,0.318,0.3181,0.3197,0.3196,0.3194,0.3193,0.3196,0.3197,0.3199,0,0,0,0,0,0,0,0,0,0,0,0,0,0.3067,0.3009,0.3083,0.3103,0.3106,0.3178,0.318,0.3182,0.3197,0.3195,0.3194,0.3193,0.3196,0.3197,0.3199,0.3238,0,0,0.3203,0.3204,0,0,0,0,0,0,0,0,0.3064,0.307,0.3099,0.3102,0.3105,0.3172,0.3154,0.3195,0.3197,0.3164,0.3194,0.3192,0.318,0.3183,0.3208,0.3238,0.3238,0.3203,0.3204,0.3205,0.3205,0,0,0,0,0,0,0,0.306,0.3067,0.3123,0.31,0.3104,0.3139,0.3145,0.3163,0.3179,0.3167,0.3168,0.3176,0.3181,0.3206,0.3208,0.3238,0.3203,0.3205,0.3206,0.3206,0.3338,0.3341,0,0,0,0,0,0,0.3041,0.3063,0.312,0.3126,0.3078,0.3141,0.3148,0.3154,0.3181,0.3184,0.3177,0.3176,0.3205,0.3206,0.3208,0.3326,0.3205,0.3206,0.3207,0.3336,0.3339,0.3342,0,0,0,0,0,0,0.3039,0.3045,0.3116,0.3095,0.3106,0.3143,0.315,0.3157,0.3196,0.3189,0.319,0.321,0.3203,0.3205,0.3247,0.3322,0.3207,0.3208,0.3333,0.3337,0.334,0.3516,0,0,0,0,0,0,0.3037,0.3044,0.3052,0.3094,0.3106,0.3175,0.3152,0.3159,0.3201,0.3201,0.3218,0.3216,0.3202,0.3245,0.3248,0.3322,0.321,0.3329,0.3334,0.3339,0.3507,0.3525,0.3541,0,0,0,0,0,0.3034,0.305,0.3052,0.3059,0.3113,0.3176,0.3188,0.321,0.3204,0.3237,0.3248,0.3216,0.3278,0.3249,0.3252,0.3328,0.3327,0.3333,0.3339,0.3499,0.3522,0.3541,0,0,0,0,0,0,0.3023,0.3055,0.3057,0.3082,0.3131,0.3178,0.3207,0.3227,0.3267,0.3268,0.3253,0.3254,0.332,0.3294,0.3262,0.3377,0.3297,0.3304,0.3418,0.3439,0.3455,0.3552,0.3211,0,0,0,0,0,0.3024,0.3046,0.3085,0.3111,0.3131,0.3175,0.3205,0.3232,0.3267,0.3284,0.3302,0.3316,0.3348,0.3366,0.3383,0.3449,0.3453,0.3496,0.3514,0.3528,0.3608,0.3625,0.3652,0.3361,0.3361,0.3361,0,0,0.3024,0.3048,0.3058,0.3112,0.3145,0.32,0.319,0.3253,0.3317,0.3277,0.3365,0.3379,0.3377,0.3455,0.3482,0.3444,0.3617,0.3536,0.3549,0.3622,0.3634,0.3663,0.3688,0.3365,0.3364,0.3364,0,0,0.3052,0.3061,0.3093,0.3137,0.3201,0.3236,0.3258,0.3329,0.3373,0.3435,0.3452,0.3547,0.3527,0.3624,0.3641,0.377,0.3703,0.3724,0.3902,0.3915,0.3941,0.3963,0.4023,0.4049,0.3736,0.3736,0.3737,0,0.3052,0.3092,0.3118,0.317,0.3216,0.3253,0.3319,0.3376,0.3462,0.3549,0.3464,0.3623,0.3632,0.3819,0.3869,0.3824,0.3798,0.3822,0.3942,0.3963,0.3983,0.4038,0.4065,0.3746,0.3744,0.3744,0.3743,0,0.311,0.3145,0.3171,0.3243,0.331,0.3367,0.3448,0.3542,0.3569,0.3647,0.3813,0.3848,0.3959,0.397,0.3953,0.4143,0.407,0.3955,0.3895,0.4024,0.4073,0.4098,0.3759,0.3755,0.3753,0.375,0,0,0.3091,0.3187,0.3195,0.3252,0.3352,0.3422,0.3553,0.3713,0.3825,0.3912,0.4053,0.4205,0.4264,0.4298,0.4322,0.4375,0.4508,0.4233,0.4229,0.431,0.4548,0.4379,0.4388,0.4358,0.4363,0.4367,0.4533,0,0.3122,0.3227,0.3274,0.3392,0.346,0.3558,0.3675,0.3844,0.3934,0.4073,0.4218,0.4328,0.4365,0.4407,0.4497,0.4492,0.4575,0.4477,0.4402,0.4404,0.4248,0.4413,0.4067,0.4173,0.4557,0.4561,0.4564,0,0.3161,0.3232,0.3354,0.3496,0.3533,0.3614,0.3845,0.3962,0.4193,0.4257,0.4461,0.4504,0.4754,0.4623,0.4833,0.4737,0.4703,0.4676,0.4676,0.449,0.428,0.4102,0.4202,0.4604,0.4601,0.4598,0.4595,0,0.3168,0.3286,0.3393,0.344,0.361,0.371,0.3813,0.405,0.4171,0.4397,0.4459,0.4721,0.4805,0.4855,0.4895,0.483,0.4987,0.4864,0.4723,0.471,0.4403,0.4354,0.4975,0.4975,0.4975,0.4974,0.4974,0,0.3188,0.3263,0.3402,0.346,0.3591,0.3736,0.39,0.4045,0.4245,0.4392,0.4569,0.4692,0.4836,0.4933,0.494,0.4953,0.5047,0.4842,0.476,0.4452,0.4408,0.475,0.4721,0.498,0.4979,0.4978,0.4977,0,0.3176,0.3265,0.3395,0.3563,0.3594,0.3719,0.3877,0.4011,0.4207,0.4377,0.4443,0.4703,0.4839,0.4952,0.5027,0.4997,0.5003,0.4952,0.4622,0.4498,0.4719,0.4698,0.4869,0.4865,0.4861,0.4858,0.4856,0,0.3177,0.3249,0.3418,0.3493,0.3555,0.3702,0.3787,0.3974,0.4094,0.438,0.4446,0.4646,0.475,0.4876,0.484,0.4854,0.4926,0.4511,0.4355,0.4816,0.4718,0.4702,0.4686,0.4038,0.4029,0.4021,0.4015,0,0.318,0.3255,0.3351,0.3458,0.3558,0.3653,0.3771,0.3819,0.4056,0.4164,0.4326,0.4425,0.458,0.4457,0.4476,0.4431,0.449,0.4358,0.4928,0.409,0.4036,0.3938,0.3949,0.395,0.3956,0.3961,0.3965,0.3967,0.3176,0.3237,0.3343,0.3414,0.3526,0.3574,0.3544,0.3671,0.3747,0.3827,0.4044,0.4058,0.4144,0.3998,0.3889,0.3824,0.4117,0.394,0.3962,0.3992,0.3838,0.3776,0.3619,0.3623,0.3627,0.363,0.3633,0,0.3159,0.3202,0.3277,0.3355,0.3346,0.346,0.3503,0.3409,0.3373,0.3526,0.3567,0.3303,0.3258,0.3353,0.3161,0.316,0.3126,0.3028,0.2959,0.3028,0.3089,0.2886,0.2416,0.2412,0.2408,0.2404,0,0,0.318,0.3181,0.3168,0.3091,0.3151,0.3079,0.3044,0.2961,0.2977,0.2853,0.2854,0.3067,0.326,0.2772,0.2721,0.254,0.2754,0.2443,0.3432,0.3421,0.3475,0.3641,0.341,0,0,0,0,0]},{"header":{"parameterUnit":"m.s-1","parameterCategory":2,"la1":30.2991,"la2":30.254,"lo1":-89.0895,"lo2":-89.0444,"dy":0.0017,"dx":0.0017,"nx":28,"ny":28,"refTime":"2024-06-07T03:00:00:Z","depth":"2","parameterNumber":3,"parameterNumberName":"V-component_of_CURRENTS"},"data":[0,0,0,0,0,0,0,0,0,0,0,0,0,0,0,0,0,0,0,0,0,0,0,0,0,0,0,0,0,0,0,0,0,0,0,0,0,0,0,0,0,0,0,0,0,0,0,0,0,0,0,0,0,0,0,0,0,0,-0.0073,-0.0073,0,-0.0097,-0.0097,-0.0097,-0.0123,-0.0124,-0.0124,-0.0124,-0.0207,-0.0208,-0.021,0,0,0,0,0,0,0,0,0,0,0,0,0,-0.004,-0.004,-0.0073,-0.0073,-0.0073,-0.0097,-0.0097,-0.0097,-0.0123,-0.0124,-0.0124,-0.0125,-0.0206,-0.0208,-0.021,0,0,0,0,0,0,0,0,0,0,0,0,0,-0.0057,-0.004,-0.0073,-0.0089,-0.0091,-0.0097,-0.0097,-0.0097,-0.0123,-0.0124,-0.0124,-0.0125,-0.0205,-0.0208,-0.0211,-0.0215,0,0,-0.0219,-0.022,0,0,0,0,0,0,0,0,-0.0056,-0.0059,-0.0086,-0.0088,-0.009,-0.0108,-0.0115,-0.014,-0.0123,-0.011,-0.0124,-0.0125,-0.0179,-0.0184,-0.0185,-0.0219,-0.0222,-0.0219,-0.0221,-0.0222,-0.0223,0,0,0,0,0,0,0,-0.0055,-0.0058,-0.0082,-0.0087,-0.0089,-0.0092,-0.0096,-0.012,-0.0142,-0.0112,-0.0114,-0.0117,-0.018,-0.0183,-0.0188,-0.0224,-0.0219,-0.0221,-0.0223,-0.0224,-0.0283,-0.0283,0,0,0,0,0,0,-0.0053,-0.0057,-0.0081,-0.0082,-0.0075,-0.0093,-0.0096,-0.0101,-0.014,-0.0146,-0.0116,-0.0118,-0.0178,-0.0185,-0.0191,-0.0203,-0.0222,-0.0224,-0.0226,-0.0283,-0.0283,-0.0283,0,0,0,0,0,0,-0.0052,-0.0055,-0.008,-0.007,-0.0074,-0.0093,-0.0098,-0.0101,-0.0102,-0.0143,-0.015,-0.0113,-0.0179,-0.0187,-0.0209,-0.0207,-0.0226,-0.0228,-0.0283,-0.0283,-0.0283,-0.0225,0,0,0,0,0,0,-0.0051,-0.0055,-0.0053,-0.007,-0.0074,-0.0071,-0.0098,-0.0101,-0.0103,-0.0105,-0.0143,-0.0151,-0.018,-0.0205,-0.0212,-0.0211,-0.023,-0.0284,-0.0283,-0.0283,-0.0227,-0.0223,-0.022,0,0,0,0,0,-0.005,-0.0041,-0.0053,-0.0056,-0.0073,-0.007,-0.0072,-0.0087,-0.0102,-0.0092,-0.0125,-0.015,-0.021,-0.0207,-0.0215,-0.0215,-0.0284,-0.0283,-0.0283,-0.0229,-0.0224,-0.022,0,0,0,0,0,0,-0.0021,-0.0043,-0.0057,-0.0055,-0.0058,-0.0074,-0.0065,-0.0081,-0.0097,-0.0103,-0.0146,-0.0155,-0.0173,-0.0202,-0.0198,-0.0232,-0.0252,-0.0254,-0.0208,-0.0204,-0.02,-0.0139,-0.0233,0,0,0,0,0,-0.0016,-0.0016,-0.0035,-0.003,-0.003,-0.0048,-0.0048,-0.006,-0.0079,-0.0085,-0.0112,-0.0147,-0.0178,-0.0197,-0.0221,-0.024,-0.025,-0.0247,-0.0243,-0.024,-0.0196,-0.0203,-0.0195,-0.0283,-0.0283,-0.0283,0,0,-0.0004,-0.0015,-0.0015,-0.0024,-0.0028,-0.0011,-0.0048,-0.0043,-0.0033,-0.0093,-0.0086,-0.0129,-0.0178,-0.0196,-0.0208,-0.0222,-0.0231,-0.024,-0.0236,-0.0194,-0.0202,-0.0193,-0.0185,-0.0283,-0.0283,-0.0283,0,0,0.0033,0.0013,0.003,0.0032,0.0028,0.0019,0.0023,0.001,-0.0,-0.0003,-0.0051,-0.0083,-0.0122,-0.0157,-0.0183,-0.0172,-0.0205,-0.0195,-0.0132,-0.014,-0.0132,-0.0124,-0.0166,-0.0163,-0.02,-0.0199,-0.0199,0,0.0049,0.007,0.0039,0.0063,0.0079,0.0038,0.0074,0.0057,0.0037,0.0047,0.0011,-0.0029,-0.0095,-0.0106,-0.0121,-0.016,-0.0175,-0.0147,-0.0132,-0.0125,-0.0118,-0.0162,-0.0159,-0.0197,-0.0197,-0.0197,-0.0198,0,0.0103,0.0123,0.014,0.0155,0.0164,0.019,0.0166,0.0166,0.0146,0.0141,0.0138,0.0058,0.0044,-0.001,-0.007,-0.0064,-0.0096,-0.0121,-0.0136,-0.0105,-0.0155,-0.0153,-0.0193,-0.0194,-0.0195,-0.0195,0,0,0.014,0.0172,0.018,0.0221,0.022,0.0245,0.0251,0.0272,0.0313,0.0265,0.0317,0.0217,0.0193,0.0163,0.0078,0.0043,0.002,-0.002,-0.0022,-0.0046,-0.0012,-0.0058,-0.0061,0.0003,0.0005,0.0006,-0.008,0,0.0202,0.0277,0.0269,0.0354,0.0399,0.0373,0.0405,0.041,0.0403,0.0437,0.0356,0.0369,0.0251,0.0241,0.0191,0.0078,0.0036,0.0045,-0.0048,-0.0051,-0.0083,-0.0056,-0.0021,-0.0094,-0.0078,-0.0078,-0.0077,0,0.0263,0.0313,0.0403,0.0486,0.0505,0.0548,0.0613,0.0632,0.0642,0.0641,0.0633,0.058,0.0515,0.0415,0.0272,0.0287,0.0155,0.0055,0.0049,0.0005,-0.0089,-0.0116,-0.0091,-0.0074,-0.0075,-0.0075,-0.0075,0,0.0331,0.0413,0.0498,0.0522,0.0595,0.0641,0.0681,0.0709,0.0757,0.078,0.0826,0.0755,0.0729,0.0582,0.0353,0.0323,0.0201,0.0129,-0.0034,-0.0041,-0.0026,-0.0033,0.0053,0.0053,0.0053,0.0053,0.0054,0,0.0407,0.0481,0.0547,0.0602,0.0733,0.0742,0.0872,0.0892,0.0946,0.1044,0.095,0.1002,0.0776,0.0665,0.0441,0.022,0.0269,0.0004,-0.0047,-0.0013,-0.0018,-0.0002,-0.0008,0.005,0.0051,0.0052,0.0052,0,0.0472,0.0507,0.0622,0.0724,0.0771,0.0865,0.0997,0.1085,0.1118,0.1236,0.1252,0.1194,0.1048,0.0796,0.0548,0.0344,0.0124,0.0028,0.0064,0.0019,-0.0144,-0.0145,-0.0153,-0.0155,-0.0157,-0.0158,-0.0159,0,0.0513,0.0575,0.0718,0.0805,0.0864,0.1,0.1101,0.1167,0.1264,0.1363,0.1433,0.1337,0.1289,0.0905,0.0533,0.0162,0.0108,-0.0046,-0.0103,-0.0105,-0.0155,-0.0154,-0.0154,-0.0088,-0.0089,-0.0089,-0.0089,0,0.0601,0.0644,0.0743,0.0917,0.1045,0.119,0.1339,0.144,0.1531,0.1629,0.173,0.1699,0.1342,0.0989,0.0483,0.0233,0.0014,-0.0068,-0.0039,-0.0041,-0.005,-0.0098,-0.0098,-0.0093,-0.0092,-0.0092,-0.0092,-0.0092,0.0671,0.0747,0.0873,0.1044,0.1187,0.1364,0.1502,0.1653,0.182,0.195,0.1912,0.1861,0.147,0.0813,0.0399,-0.0034,-0.0027,-0.0183,-0.0179,-0.0175,-0.0151,-0.0162,-0.0223,-0.0224,-0.0224,-0.0224,-0.0225,0,0.0755,0.0839,0.0995,0.1189,0.1349,0.1416,0.1648,0.1776,0.1986,0.2063,0.2107,0.1717,0.1321,0.0869,0.0229,-0.0156,-0.0179,-0.0277,-0.0216,-0.0209,-0.0204,-0.018,-0.0262,-0.0263,-0.0264,-0.0265,0,0,0.0806,0.0948,0.1021,0.1287,0.1425,0.164,0.1777,0.1966,0.2079,0.2141,0.2096,0.1963,0.145,0.0973,0.0457,0.0103,0.0034,0.0029,0.0101,0.0241,0.0251,-0.0108,-0.0059,0,0,0,0,0]}],[{"header":{"parameterUnit":"m.s-1","parameterCategory":2,"la1":30.2991,"la2":30.254,"lo1":-89.0895,"lo2":-89.0444,"dy":0.0017,"dx":0.0017,"nx":28,"ny":28,"refTime":"2024-06-07T03:00:00:Z","depth":"4","parameterNumber":2,"parameterNumberName":"U-component_of_CURRENTS"},"data":[0,0,0,0,0,0,0,0,0,0,0,0,0,0,0,0,0,0,0,0,0,0,0,0,0,0,0,0,0,0,0,0,0,0,0,0,0,0,0,0,0,0,0,0,0,0,0,0,0,0,0,0,0,0,0,0,0,0,0.1977,0.1978,0,0.1979,0.1979,0.1978,0.2022,0.2023,0.2025,0.2026,0.1995,0.1993,0.199,0,0,0,0,0,0,0,0,0,0,0,0,0,0.1917,0.1918,0.1977,0.1978,0.1978,0.1979,0.1979,0.1978,0.2021,0.2023,0.2025,0.2027,0.1996,0.1993,0.199,0,0,0,0,0,0,0,0,0,0,0,0,0,0.1928,0.1918,0.1977,0.2004,0.2007,0.1979,0.1979,0.1978,0.2021,0.2023,0.2026,0.2028,0.1996,0.1993,0.199,0.192,0,0,0.1979,0.1977,0,0,0,0,0,0,0,0,0.1928,0.193,0.1999,0.2002,0.2005,0.2007,0.1946,0.1959,0.202,0.201,0.2027,0.2029,0.1997,0.1994,0.1982,0.1918,0.1917,0.1979,0.1976,0.1975,0.1974,0,0,0,0,0,0,0,0.1927,0.1929,0.1972,0.2,0.2003,0.1984,0.1988,0.1948,0.1985,0.2011,0.2015,0.2023,0.1998,0.1985,0.1982,0.1916,0.1979,0.1976,0.1973,0.1972,0.1909,0.1909,0,0,0,0,0,0,0.194,0.1929,0.1973,0.1973,0.1977,0.1984,0.1988,0.2,0.1987,0.1989,0.2021,0.2026,0.199,0.1986,0.1981,0.2022,0.1975,0.1972,0.197,0.1908,0.1909,0.1909,0,0,0,0,0,0,0.1938,0.1944,0.1973,0.1955,0.1958,0.1984,0.1995,0.1999,0.2027,0.1996,0.1997,0.2052,0.1992,0.1986,0.1985,0.2016,0.197,0.1967,0.1908,0.1909,0.1909,0.2024,0,0,0,0,0,0,0.1937,0.1943,0.1967,0.1956,0.196,0.1977,0.1993,0.1997,0.2028,0.2034,0.202,0.2018,0.1993,0.1991,0.1982,0.2011,0.1964,0.1907,0.1908,0.1909,0.2019,0.2028,0.2036,0,0,0,0,0,0.1934,0.195,0.1968,0.1974,0.1988,0.1978,0.1977,0.1999,0.2028,0.2034,0.2039,0.2021,0.199,0.1988,0.1977,0.2006,0.1907,0.1908,0.1909,0.2016,0.2026,0.2036,0,0,0,0,0,0,0.1936,0.1956,0.1975,0.1998,0.2002,0.1988,0.2002,0.2016,0.2023,0.2047,0.2021,0.2017,0.2031,0.1992,0.1991,0.1988,0.1946,0.1945,0.2031,0.204,0.2048,0.2035,0.1961,0,0,0,0,0,0.1947,0.1968,0.1975,0.1996,0.2003,0.2009,0.2016,0.2034,0.2034,0.2043,0.2041,0.2031,0.2015,0.2011,0.1988,0.1976,0.2004,0.1987,0.1995,0.2003,0.1983,0.2128,0.215,0.1913,0.1913,0.1913,0,0,0.1954,0.1969,0.1982,0.1998,0.2005,0.1995,0.2019,0.2042,0.2051,0.2034,0.2059,0.2061,0.2018,0.2023,0.2024,0.2002,0.2078,0.2004,0.2011,0.1986,0.2132,0.2156,0.2178,0.1913,0.1913,0.1913,0,0,0.1945,0.1991,0.1993,0.2004,0.2029,0.2019,0.2035,0.205,0.2084,0.209,0.2099,0.2122,0.2082,0.208,0.2062,0.209,0.2122,0.2092,0.212,0.2264,0.2287,0.2306,0.2355,0.2378,0.2093,0.2093,0.2094,0,0.1958,0.1961,0.199,0.1992,0.2007,0.2031,0.203,0.2044,0.2066,0.2108,0.2111,0.2128,0.21,0.2119,0.2127,0.2111,0.2181,0.2096,0.2282,0.2302,0.2321,0.2366,0.2391,0.2099,0.2098,0.2098,0.2097,0,0.1932,0.1953,0.1957,0.1964,0.1979,0.199,0.2016,0.2041,0.2081,0.2124,0.2192,0.2179,0.2205,0.2195,0.2155,0.2263,0.2265,0.2291,0.2273,0.2353,0.2393,0.2417,0.2107,0.2105,0.2103,0.2102,0,0,0.1907,0.1933,0.194,0.1953,0.198,0.1985,0.2003,0.2041,0.211,0.2145,0.225,0.2211,0.2286,0.2267,0.2271,0.2349,0.252,0.2375,0.238,0.2445,0.281,0.2601,0.2606,0.2631,0.2636,0.264,0.278,0,0.1877,0.1873,0.1901,0.1906,0.1905,0.1951,0.199,0.205,0.2115,0.2231,0.2277,0.2381,0.2298,0.237,0.2433,0.2523,0.2591,0.2475,0.2697,0.27,0.2529,0.2629,0.2656,0.2798,0.2803,0.2807,0.281,0,0.1829,0.184,0.1843,0.191,0.1926,0.1952,0.2043,0.2094,0.2247,0.2333,0.2434,0.2516,0.2613,0.2575,0.2731,0.2687,0.274,0.2779,0.2789,0.2563,0.2536,0.2701,0.2852,0.2849,0.2846,0.2843,0.2841,0,0.1769,0.1801,0.1808,0.1826,0.1898,0.1948,0.2015,0.2147,0.2243,0.2456,0.2567,0.2701,0.2814,0.2913,0.2932,0.2907,0.3112,0.3108,0.2941,0.2925,0.3023,0.3,0.3235,0.3234,0.3234,0.3234,0.3233,0,0.1703,0.1718,0.1801,0.1809,0.1884,0.1973,0.2094,0.2187,0.2386,0.2513,0.2667,0.2754,0.2925,0.3028,0.3039,0.3035,0.3214,0.2942,0.2966,0.3058,0.3039,0.3039,0.3014,0.3239,0.3238,0.3237,0.3236,0,0.1621,0.1661,0.1689,0.1799,0.1852,0.1928,0.2127,0.2211,0.2429,0.2596,0.2689,0.2884,0.3018,0.3103,0.3268,0.3152,0.3192,0.3142,0.3189,0.3213,0.2877,0.2856,0.3,0.2994,0.2989,0.2985,0.2982,0,0.1565,0.1573,0.1686,0.1722,0.1782,0.1913,0.1998,0.2215,0.231,0.26,0.2667,0.289,0.2975,0.3026,0.3133,0.318,0.3123,0.3109,0.2993,0.2853,0.2863,0.285,0.2836,0.2974,0.2973,0.2971,0.297,0,0.1473,0.1536,0.1559,0.1652,0.1734,0.18,0.1953,0.2022,0.2258,0.2473,0.2595,0.2679,0.2817,0.2904,0.2965,0.2973,0.3112,0.3057,0.3066,0.2957,0.2824,0.2835,0.2828,0.2953,0.2956,0.2957,0.2958,0,0.1422,0.1412,0.147,0.1542,0.1636,0.1662,0.1754,0.1868,0.2002,0.2335,0.2351,0.2575,0.2772,0.2796,0.2839,0.2856,0.281,0.2696,0.2723,0.2743,0.259,0.2378,0.24,0,0,0,0,0,0.1353,0.1315,0.1359,0.1394,0.1493,0.1548,0.1701,0.1798,0.2035,0.2063,0.2216,0.2326,0.2432,0.2544,0.2514,0.2715,0.2806,0.2664,0.2684,0.2859,0.2878,0.2719,0,0,0,0,0,0,0.1293,0.1298,0.1293,0.1274,0.1292,0.1356,0.1443,0.159,0.1634,0.1896,0.1978,0.2171,0.232,0.2434,0.2467,0.2501,0.246,0.2813,0.2806,0.2847,0.2865,0.2881,0.2725,0,0,0,0,0]},{"header":{"parameterUnit":"m.s-1","parameterCategory":2,"la1":30.2991,"la2":30.254,"lo1":-89.0895,"lo2":-89.0444,"dy":0.0017,"dx":0.0017,"nx":28,"ny":28,"refTime":"2024-06-07T03:00:00:Z","depth":"4","parameterNumber":3,"parameterNumberName":"V-component_of_CURRENTS"},"data":[0,0,0,0,0,0,0,0,0,0,0,0,0,0,0,0,0,0,0,0,0,0,0,0,0,0,0,0,0,0,0,0,0,0,0,0,0,0,0,0,0,0,0,0,0,0,0,0,0,0,0,0,0,0,0,0,0,0,-0.0023,-0.0024,0,-0.0018,-0.0018,-0.0018,-0.0031,-0.0031,-0.0032,-0.0032,-0.0031,-0.0031,-0.003,0,0,0,0,0,0,0,0,0,0,0,0,0,-0.0013,-0.0013,-0.0023,-0.0024,-0.0024,-0.0018,-0.0018,-0.0018,-0.0031,-0.0031,-0.0032,-0.0033,-0.0031,-0.0031,-0.003,0,0,0,0,0,0,0,0,0,0,0,0,0,-0.0012,-0.0013,-0.0023,-0.0031,-0.0032,-0.0018,-0.0018,-0.0018,-0.003,-0.0031,-0.0032,-0.0033,-0.0032,-0.0031,-0.003,-0.0007,0,0,-0.0027,-0.0027,0,0,0,0,0,0,0,0,-0.0012,-0.0012,-0.003,-0.003,-0.0031,-0.0028,-0.0014,-0.0015,-0.003,-0.0029,-0.0032,-0.0033,-0.0031,-0.003,-0.0025,-0.0007,-0.0007,-0.0027,-0.0027,-0.0026,-0.0026,0,0,0,0,0,0,0,-0.0012,-0.0012,-0.002,-0.003,-0.0031,-0.0023,-0.0024,-0.0014,-0.0024,-0.0029,-0.003,-0.0032,-0.0031,-0.0025,-0.0025,-0.0007,-0.0027,-0.0027,-0.0026,-0.0026,0.0051,0.0053,0,0,0,0,0,0,-0.0017,-0.0012,-0.002,-0.002,-0.0025,-0.0023,-0.0024,-0.0026,-0.0024,-0.0025,-0.0032,-0.0033,-0.0026,-0.0026,-0.0025,0.0015,-0.0026,-0.0026,-0.0025,0.005,0.0052,0.0053,0,0,0,0,0,0,-0.0017,-0.0018,-0.002,-0.0017,-0.0017,-0.0023,-0.0025,-0.0026,-0.0019,-0.0026,-0.0027,-0.0025,-0.0027,-0.0026,-0.0003,0.0015,-0.0025,-0.0025,0.0048,0.005,0.0052,0.0087,0,0,0,0,0,0,-0.0016,-0.0017,-0.0017,-0.0017,-0.0018,0.0001,-0.0024,-0.0025,-0.002,-0.0022,-0.002,-0.0021,-0.0028,-0.0004,-0.0002,0.0015,-0.0024,0.0046,0.0049,0.0052,0.0084,0.0091,0.0096,0,0,0,0,0,-0.0016,-0.0006,-0.0017,-0.0018,-0.0018,0.0002,0.0004,-0.0002,-0.0019,-0.0002,-0.0003,-0.0021,0.0015,-0.0002,0.0,0.0018,0.0045,0.0048,0.0051,0.0082,0.0089,0.0096,0,0,0,0,0,0,0.0003,-0.0007,-0.0019,-0.0013,-0.0002,-0.0,0.0013,0.0004,0.0016,0.0011,-0.0001,-0.0,0.0024,0.0024,0.0005,0.0051,0.0027,0.0031,0.005,0.0057,0.0063,0.0082,-0.0023,0,0,0,0,0,0.0005,0.0008,0.0004,0.0012,0.0018,0.0015,0.0021,0.0017,0.0023,0.0027,0.0029,0.0034,0.0042,0.005,0.0059,0.0088,0.005,0.0103,0.0108,0.0113,0.0132,0.0069,0.007,0.0065,0.0065,0.0064,0,0,0.0013,0.0009,0.001,0.0016,0.0022,0.0051,0.0018,0.0034,0.0057,0.0026,0.0064,0.0053,0.0054,0.0083,0.0094,0.0084,0.0095,0.0118,0.0122,0.0138,0.0072,0.0072,0.0072,0.0067,0.0066,0.0066,0,0,0.0048,0.0031,0.0052,0.0064,0.0074,0.0077,0.0083,0.0092,0.0095,0.0127,0.0104,0.0109,0.0135,0.0133,0.0136,0.0184,0.0124,0.0185,0.0232,0.017,0.0169,0.0168,0.0111,0.0104,0.0191,0.0191,0.0191,0,0.0058,0.0084,0.0065,0.0096,0.0114,0.0094,0.0134,0.014,0.0155,0.0163,0.0149,0.0165,0.0162,0.018,0.0202,0.0196,0.0147,0.02,0.0174,0.0172,0.017,0.0112,0.0104,0.0193,0.0193,0.0192,0.0192,0,0.0114,0.0138,0.0156,0.0186,0.0204,0.0236,0.0238,0.0257,0.0252,0.0251,0.0264,0.0249,0.0257,0.0254,0.0249,0.0242,0.0207,0.0179,0.0148,0.0172,0.011,0.0101,0.0196,0.0195,0.0195,0.0194,0,0,0.0135,0.0185,0.0193,0.0228,0.0254,0.0279,0.0316,0.0346,0.0367,0.036,0.038,0.0384,0.0351,0.0352,0.0322,0.0282,0.0226,0.0236,0.0232,0.0166,0.008,0.0072,0.0061,0.0176,0.0175,0.0174,0.0038,0,0.0191,0.0268,0.0276,0.0357,0.0401,0.0398,0.044,0.0455,0.0453,0.0467,0.0423,0.0435,0.0392,0.039,0.0339,0.0261,0.0206,0.0266,0.008,0.0076,0.0053,0.0052,0.0171,0.0031,0.0028,0.0027,0.0026,0,0.0247,0.0293,0.0379,0.045,0.0469,0.0514,0.0564,0.0597,0.0595,0.059,0.0564,0.0519,0.0479,0.0429,0.0282,0.0315,0.0211,0.0136,0.0128,0.0107,0.0052,0.0005,0.0009,0.001,0.0011,0.0013,0.0014,0,0.028,0.0367,0.044,0.0465,0.0538,0.0579,0.062,0.0638,0.0677,0.0664,0.0676,0.059,0.0561,0.0417,0.0266,0.0265,0.0084,0.0054,-0.0058,-0.006,-0.0031,-0.0028,-0.0063,-0.0062,-0.0062,-0.0062,-0.0061,0,0.0335,0.0396,0.0467,0.0511,0.061,0.0633,0.0724,0.0744,0.0773,0.0818,0.0741,0.073,0.0555,0.0428,0.0274,0.0084,0.0075,-0.0044,-0.0094,-0.0012,-0.0005,-0.0039,-0.0034,-0.0067,-0.0066,-0.0065,-0.0064,0,0.0365,0.0409,0.0501,0.0591,0.0633,0.0702,0.0817,0.087,0.0886,0.0935,0.0936,0.0836,0.0668,0.0474,0.024,0.011,-0.0078,-0.0149,-0.0041,-0.0084,-0.0185,-0.0176,-0.0284,-0.0285,-0.0286,-0.0287,-0.0288,0,0.0386,0.0435,0.0559,0.0627,0.068,0.0791,0.087,0.0929,0.0986,0.0991,0.1011,0.0875,0.0778,0.0446,0.0227,-0.0081,-0.0124,-0.0225,-0.02,-0.0168,-0.0207,-0.0196,-0.0187,-0.029,-0.029,-0.029,-0.0291,0,0.0426,0.0468,0.0546,0.0687,0.0788,0.0906,0.1019,0.1067,0.112,0.113,0.1075,0.0905,0.0713,0.0448,0.0211,-0.0012,-0.0158,-0.0238,-0.0237,-0.0215,-0.0177,-0.0212,-0.0201,-0.0295,-0.0294,-0.0294,-0.0293,0,0.0454,0.0511,0.0616,0.0742,0.0867,0.0982,0.1044,0.111,0.1166,0.1165,0.1132,0.0925,0.0807,0.0481,0.0256,0.0044,-0.0011,-0.0077,-0.0085,-0.0084,0.0017,0.0096,0.0024,0,0,0,0,0,0.048,0.055,0.0666,0.0806,0.0925,0.1005,0.1126,0.1171,0.1211,0.1187,0.1171,0.099,0.0663,0.0515,0.0302,0.0217,-0.006,-0.0042,-0.0143,-0.0317,-0.0312,-0.0229,0,0,0,0,0,0,0.0503,0.0606,0.0667,0.083,0.0927,0.1069,0.1143,0.1176,0.117,0.1169,0.1001,0.0929,0.0611,0.0784,0.0293,0.0228,0.0133,-0.019,-0.0195,-0.032,-0.0315,-0.0312,-0.0224,0,0,0,0,0]}]]